,,,PA_Meas_PMT16A,,PR_Meas_QMR101_102,,RH_Meas_QMH101,,SR_Meas_QMS101,,TA_Meas_QMH101,,GenWind,,GenWind,
date,time,status,PA,status,PR,status,RH,status,SR,status,TA,status,DirAvg,status,SpdAvg,
2008-10-18, 00:00:04,VALID,1008.11,VALID,0,VALID,94.872,VALID,0,VALID,24.4132,VALID,56,VALID,0,
2008-10-18, 00:01:04,VALID,1008.09,VALID,0,VALID,94.8873,VALID,0,VALID,24.415,VALID,56,VALID,0,
2008-10-18, 00:02:04,VALID,1008.07,VALID,0,VALID,94.872,VALID,0,VALID,24.415,VALID,56,VALID,0,
2008-10-18, 00:03:04,VALID,1008.07,VALID,0,VALID,94.8491,VALID,0,VALID,24.4345,VALID,56,VALID,0,
2008-10-18, 00:04:04,VALID,1008.05,VALID,0,VALID,94.8644,VALID,0,VALID,24.415,VALID,56,VALID,0,
2008-10-18, 00:05:04,VALID,1008.04,VALID,0,VALID,94.8644,VALID,0,VALID,24.4345,VALID,56,VALID,0,
2008-10-18, 00:06:04,VALID,1008.03,VALID,0,VALID,94.8644,VALID,0,VALID,24.454,VALID,56,VALID,0,
2008-10-18, 00:07:04,VALID,1008.01,VALID,0,VALID,94.872,VALID,0,VALID,24.4308,VALID,56,VALID,0,
2008-10-18, 00:08:04,VALID,1007.98,VALID,0,VALID,94.8568,VALID,0.105969,VALID,24.4327,VALID,56,VALID,0.153516,
2008-10-18, 00:09:04,VALID,1008.01,VALID,0,VALID,94.8186,VALID,0.105969,VALID,24.4132,VALID,56,VALID,0.141797,
2008-10-18, 00:10:04,VALID,1008.01,VALID,0,VALID,94.8339,VALID,0.105969,VALID,24.4132,VALID,56,VALID,0.21875,
2008-10-18, 00:11:04,VALID,1008.03,VALID,0,VALID,94.8262,VALID,0.105969,VALID,24.3937,VALID,56,VALID,0.217578,
2008-10-18, 00:12:04,VALID,1008.02,VALID,0,VALID,94.811,VALID,0.105969,VALID,24.3742,VALID,56,VALID,0.335547,
2008-10-18, 00:13:04,VALID,1008.06,VALID,0,VALID,94.8186,VALID,0.105969,VALID,24.3742,VALID,56,VALID,0.00820312,
2008-10-18, 00:14:04,VALID,1008.07,VALID,0,VALID,94.8186,VALID,0.105969,VALID,24.3529,VALID,56,VALID,0.313281,
2008-10-18, 00:15:04,VALID,1008.07,VALID,0,VALID,94.8262,VALID,0.105969,VALID,24.3742,VALID,56,VALID,0.227344,
2008-10-18, 00:16:04,VALID,1008.1,VALID,0,VALID,94.8262,VALID,0.105969,VALID,24.3742,VALID,56,VALID,0.154297,
2008-10-18, 00:17:04,VALID,1008.09,VALID,0,VALID,94.8034,VALID,0.105969,VALID,24.3547,VALID,56,VALID,0.110937,
2008-10-18, 00:18:04,VALID,1008.1,VALID,0,VALID,94.8186,VALID,0.105969,VALID,24.3742,VALID,56,VALID,0,
2008-10-18, 00:19:04,VALID,1008.1,VALID,0,VALID,94.8186,VALID,0,VALID,24.3547,VALID,56,VALID,0.0863281,
2008-10-18, 00:20:04,VALID,1008.1,VALID,0,VALID,94.8034,VALID,0.105969,VALID,24.3742,VALID,56,VALID,0,
2008-10-18, 00:21:04,VALID,1008.09,VALID,0,VALID,94.8034,VALID,0.105969,VALID,24.3547,VALID,56,VALID,0.0046875,
2008-10-18, 00:22:04,VALID,1008.06,VALID,0,VALID,94.8491,VALID,0.105969,VALID,24.3742,VALID,56,VALID,0.244922,
2008-10-18, 00:23:04,VALID,1008.07,VALID,0,VALID,94.8339,VALID,0.105969,VALID,24.3742,VALID,55,VALID,0.194922,
2008-10-18, 00:24:04,VALID,1008.05,VALID,0,VALID,94.8186,VALID,0,VALID,24.3742,VALID,51,VALID,0.269141,
2008-10-18, 00:25:04,VALID,1008.06,VALID,0,VALID,94.8034,VALID,0,VALID,24.3956,VALID,51,VALID,0.187891,
2008-10-18, 00:26:04,VALID,1008.05,VALID,0,VALID,94.811,VALID,0.105969,VALID,24.3742,VALID,51,VALID,0,
2008-10-18, 00:27:04,VALID,1008.07,VALID,0,VALID,94.7957,VALID,0,VALID,24.3937,VALID,51,VALID,0,
2008-10-18, 00:28:04,VALID,1008.09,VALID,0,VALID,94.8034,VALID,0.105969,VALID,24.3937,VALID,51,VALID,0,
2008-10-18, 00:29:04,VALID,1008.08,VALID,0,VALID,94.7957,VALID,0.105969,VALID,24.3724,VALID,51,VALID,0,
2008-10-18, 00:30:04,VALID,1008.09,VALID,0,VALID,94.7805,VALID,0.105969,VALID,24.4132,VALID,51,VALID,0,
2008-10-18, 00:31:04,VALID,1008.1,VALID,0,VALID,94.7957,VALID,0.105969,VALID,24.4132,VALID,51,VALID,0,
2008-10-18, 00:32:04,VALID,1008.08,VALID,0,VALID,94.7957,VALID,0.105969,VALID,24.4132,VALID,51,VALID,0,
2008-10-18, 00:33:04,VALID,1008.1,VALID,0,VALID,94.7881,VALID,0.105969,VALID,24.4327,VALID,51,VALID,0,
2008-10-18, 00:34:04,VALID,1008.06,VALID,0,VALID,94.8034,VALID,0.105969,VALID,24.4327,VALID,51,VALID,0.249609,
2008-10-18, 00:35:04,VALID,1008.02,VALID,0,VALID,94.7957,VALID,0.105969,VALID,24.4132,VALID,51,VALID,0.329688,
2008-10-18, 00:36:04,VALID,1008.02,VALID,0,VALID,94.7805,VALID,0.105969,VALID,24.4327,VALID,51,VALID,0.241016,
2008-10-18, 00:37:04,VALID,1008,VALID,0,VALID,94.7652,VALID,0,VALID,24.4345,VALID,51,VALID,0.321875,
2008-10-18, 00:38:04,VALID,1007.95,VALID,0,VALID,94.7576,VALID,0,VALID,24.4364,VALID,51,VALID,0.210938,
2008-10-18, 00:39:04,VALID,1007.9,VALID,0,VALID,94.75,VALID,0,VALID,24.4345,VALID,51,VALID,0.282813,
2008-10-18, 00:40:04,VALID,1007.88,VALID,0,VALID,94.7347,VALID,0,VALID,24.4345,VALID,51,VALID,0.288672,
2008-10-18, 00:41:04,VALID,1007.87,VALID,0,VALID,94.7271,VALID,0,VALID,24.454,VALID,51,VALID,0.575,
2008-10-18, 00:42:04,VALID,1007.86,VALID,0,VALID,94.7042,VALID,0,VALID,24.415,VALID,53,VALID,0.539063,
2008-10-18, 00:43:04,VALID,1007.87,VALID,0,VALID,94.7042,VALID,0,VALID,24.454,VALID,54,VALID,0.375781,
2008-10-18, 00:44:04,VALID,1007.88,VALID,0,VALID,94.689,VALID,0,VALID,24.4559,VALID,54,VALID,0.154687,
2008-10-18, 00:45:04,VALID,1007.85,VALID,0,VALID,94.6585,VALID,0,VALID,24.454,VALID,53,VALID,0.286719,
2008-10-18, 00:46:04,VALID,1007.83,VALID,0,VALID,94.6356,VALID,0,VALID,24.454,VALID,53,VALID,0.34375,
2008-10-18, 00:47:04,VALID,1007.83,VALID,0,VALID,94.6203,VALID,0,VALID,24.4345,VALID,53,VALID,0.101953,
2008-10-18, 00:48:04,VALID,1007.81,VALID,0,VALID,94.6203,VALID,0,VALID,24.454,VALID,53,VALID,0.171875,
2008-10-18, 00:49:04,VALID,1007.83,VALID,0,VALID,94.5975,VALID,0,VALID,24.415,VALID,53,VALID,0,
2008-10-18, 00:50:04,VALID,1007.8,VALID,0,VALID,94.6127,VALID,0,VALID,24.4345,VALID,53,VALID,0.0425781,
2008-10-18, 00:51:04,VALID,1007.74,VALID,0,VALID,94.5822,VALID,0,VALID,24.454,VALID,53,VALID,0.107813,
2008-10-18, 00:52:04,VALID,1007.78,VALID,0,VALID,94.5975,VALID,0,VALID,24.4345,VALID,53,VALID,0,
2008-10-18, 00:53:04,VALID,1007.77,VALID,0,VALID,94.5975,VALID,0,VALID,24.415,VALID,53,VALID,0,
2008-10-18, 00:54:04,VALID,1007.77,VALID,0,VALID,94.6051,VALID,0,VALID,24.454,VALID,53,VALID,0.126172,
2008-10-18, 00:55:04,VALID,1007.77,VALID,0,VALID,94.5975,VALID,0,VALID,24.4345,VALID,37,VALID,0.477734,
2008-10-18, 00:56:04,VALID,1007.76,VALID,0,VALID,94.6051,VALID,0,VALID,24.4345,VALID,13,VALID,0.126172,
2008-10-18, 00:57:04,VALID,1007.78,VALID,0,VALID,94.5746,VALID,0,VALID,24.4345,VALID,13,VALID,0,
2008-10-18, 00:58:04,VALID,1007.76,VALID,0,VALID,94.5975,VALID,0,VALID,24.415,VALID,13,VALID,0,
2008-10-18, 00:59:04,VALID,1007.74,VALID,0,VALID,94.5822,VALID,0,VALID,24.4345,VALID,13,VALID,0,
2008-10-18, 01:00:04,VALID,1007.74,VALID,0,VALID,94.6127,VALID,0,VALID,24.415,VALID,13,VALID,0,
2008-10-18, 01:01:04,VALID,1007.76,VALID,0,VALID,94.6051,VALID,0,VALID,24.4345,VALID,13,VALID,0,
2008-10-18, 01:02:04,VALID,1007.74,VALID,0,VALID,94.5975,VALID,0,VALID,24.415,VALID,13,VALID,0,
2008-10-18, 01:03:04,VALID,1007.76,VALID,0,VALID,94.5822,VALID,0,VALID,24.415,VALID,13,VALID,0,
2008-10-18, 01:04:04,VALID,1007.77,VALID,0,VALID,94.6127,VALID,0,VALID,24.4345,VALID,48,VALID,0.26875,
2008-10-18, 01:05:04,VALID,1007.8,VALID,0,VALID,94.6051,VALID,0,VALID,24.415,VALID,76,VALID,0.685156,
2008-10-18, 01:06:04,VALID,1007.79,VALID,0,VALID,94.6127,VALID,0,VALID,24.415,VALID,76,VALID,0.376563,
2008-10-18, 01:07:04,VALID,1007.8,VALID,0,VALID,94.6127,VALID,0,VALID,24.4132,VALID,72,VALID,0.405469,
2008-10-18, 01:08:04,VALID,1007.76,VALID,0,VALID,94.6127,VALID,0,VALID,24.4345,VALID,72,VALID,0.715625,
2008-10-18, 01:09:04,VALID,1007.78,VALID,0,VALID,94.5822,VALID,0,VALID,24.4132,VALID,71,VALID,0.585547,
2008-10-18, 01:10:04,VALID,1007.76,VALID,0,VALID,94.5517,VALID,0,VALID,24.4345,VALID,71,VALID,0.304297,
2008-10-18, 01:11:04,VALID,1007.75,VALID,0,VALID,94.5365,VALID,0,VALID,24.4735,VALID,69,VALID,0.326172,
2008-10-18, 01:12:04,VALID,1007.72,VALID,0,VALID,94.5212,VALID,0,VALID,24.4132,VALID,69,VALID,0.363672,
2008-10-18, 01:13:04,VALID,1007.7,VALID,0,VALID,94.506,VALID,0,VALID,24.454,VALID,68,VALID,0.162109,
2008-10-18, 01:14:04,VALID,1007.7,VALID,0,VALID,94.4983,VALID,0,VALID,24.454,VALID,69,VALID,0.127344,
2008-10-18, 01:15:04,VALID,1007.7,VALID,0,VALID,94.4907,VALID,0,VALID,24.454,VALID,62,VALID,0.169531,
2008-10-18, 01:16:04,VALID,1007.71,VALID,0,VALID,94.4602,VALID,0,VALID,24.454,VALID,53,VALID,0.266406,
2008-10-18, 01:17:04,VALID,1007.69,VALID,0,VALID,94.4373,VALID,0,VALID,24.4345,VALID,53,VALID,0.0691406,
2008-10-18, 01:18:04,VALID,1007.69,VALID,0,VALID,94.4526,VALID,0,VALID,24.4345,VALID,53,VALID,0.282813,
2008-10-18, 01:19:04,VALID,1007.68,VALID,0,VALID,94.4373,VALID,0,VALID,24.4345,VALID,53,VALID,0.557422,
2008-10-18, 01:20:04,VALID,1007.65,VALID,0,VALID,94.4297,VALID,0,VALID,24.4345,VALID,54,VALID,0.260156,
2008-10-18, 01:21:04,VALID,1007.66,VALID,0,VALID,94.4297,VALID,0,VALID,24.454,VALID,54,VALID,0.205078,
2008-10-18, 01:22:04,VALID,1007.66,VALID,0,VALID,94.4221,VALID,0,VALID,24.4345,VALID,54,VALID,0.13125,
2008-10-18, 01:23:04,VALID,1007.65,VALID,0,VALID,94.4145,VALID,0,VALID,24.4345,VALID,54,VALID,0.324219,
2008-10-18, 01:24:04,VALID,1007.68,VALID,0,VALID,94.4373,VALID,0,VALID,24.4345,VALID,54,VALID,0.282422,
2008-10-18, 01:25:04,VALID,1007.64,VALID,0,VALID,94.4068,VALID,0,VALID,24.4132,VALID,52,VALID,0.317969,
2008-10-18, 01:26:04,VALID,1007.62,VALID,0,VALID,94.3992,VALID,0,VALID,24.4345,VALID,52,VALID,0.0597656,
2008-10-18, 01:27:04,VALID,1007.64,VALID,0,VALID,94.3916,VALID,0,VALID,24.415,VALID,52,VALID,0.225781,
2008-10-18, 01:28:04,VALID,1007.66,VALID,0,VALID,94.3839,VALID,0,VALID,24.4345,VALID,52,VALID,0.211719,
2008-10-18, 01:29:04,VALID,1007.65,VALID,0,VALID,94.4068,VALID,0,VALID,24.415,VALID,48,VALID,0.0125,
2008-10-18, 01:30:04,VALID,1007.66,VALID,0,VALID,94.3916,VALID,0,VALID,24.4345,VALID,27,VALID,0.00195313,
2008-10-18, 01:31:04,VALID,1007.65,VALID,0,VALID,94.3839,VALID,0,VALID,24.4345,VALID,34,VALID,0.460547,
2008-10-18, 01:32:04,VALID,1007.63,VALID,0,VALID,94.3687,VALID,0,VALID,24.4345,VALID,42,VALID,0.11875,
2008-10-18, 01:33:04,VALID,1007.63,VALID,0,VALID,94.3534,VALID,0,VALID,24.4345,VALID,42,VALID,0.0152344,
2008-10-18, 01:34:04,VALID,1007.62,VALID,0,VALID,94.2772,VALID,0,VALID,24.454,VALID,29,VALID,0.439453,
2008-10-18, 01:35:04,VALID,1007.63,VALID,0,VALID,94.2696,VALID,0,VALID,24.4345,VALID,31,VALID,0.159375,
2008-10-18, 01:36:04,VALID,1007.61,VALID,0,VALID,94.2619,VALID,0,VALID,24.454,VALID,31,VALID,0.217187,
2008-10-18, 01:37:04,VALID,1007.59,VALID,0,VALID,94.2086,VALID,0,VALID,24.4345,VALID,34,VALID,0.486328,
2008-10-18, 01:38:04,VALID,1007.55,VALID,0,VALID,94.2238,VALID,0,VALID,24.4345,VALID,21,VALID,0.379297,
2008-10-18, 01:39:04,VALID,1007.53,VALID,0,VALID,94.1781,VALID,0,VALID,24.4559,VALID,38,VALID,0.385156,
2008-10-18, 01:40:04,VALID,1007.52,VALID,0,VALID,94.1933,VALID,0,VALID,24.454,VALID,70,VALID,0.411328,
2008-10-18, 01:41:04,VALID,1007.52,VALID,0,VALID,94.1781,VALID,0,VALID,24.4345,VALID,58,VALID,0.194141,
2008-10-18, 01:42:04,VALID,1007.49,VALID,0,VALID,94.1552,VALID,0,VALID,24.3937,VALID,58,VALID,0.185937,
2008-10-18, 01:43:04,VALID,1007.46,VALID,0,VALID,94.1628,VALID,0,VALID,24.3937,VALID,56,VALID,0.66875,
2008-10-18, 01:44:04,VALID,1007.48,VALID,0,VALID,94.1247,VALID,0,VALID,24.3956,VALID,46,VALID,0.274609,
2008-10-18, 01:45:04,VALID,1007.45,VALID,0,VALID,94.1399,VALID,0,VALID,24.415,VALID,46,VALID,0.209766,
2008-10-18, 01:46:04,VALID,1007.43,VALID,0,VALID,94.1323,VALID,0,VALID,24.3937,VALID,27,VALID,0.152734,
2008-10-18, 01:47:04,VALID,1007.43,VALID,0,VALID,94.1476,VALID,0,VALID,24.3547,VALID,359,VALID,0.447656,
2008-10-18, 01:48:04,VALID,1007.43,VALID,0,VALID,94.1323,VALID,0,VALID,24.3761,VALID,3,VALID,0.00195313,
2008-10-18, 01:49:04,VALID,1007.44,VALID,0,VALID,94.1476,VALID,0,VALID,24.415,VALID,337,VALID,0.452734,
2008-10-18, 01:50:04,VALID,1007.44,VALID,0,VALID,94.0789,VALID,0,VALID,24.3761,VALID,302,VALID,0.367969,
2008-10-18, 01:51:04,VALID,1007.46,VALID,0,VALID,94.0713,VALID,0,VALID,24.3761,VALID,301,VALID,0.0308594,
2008-10-18, 01:52:04,VALID,1007.44,VALID,0,VALID,94.0408,VALID,0,VALID,24.3761,VALID,301,VALID,0.00195313,
2008-10-18, 01:53:04,VALID,1007.44,VALID,0,VALID,94.056,VALID,0.105969,VALID,24.3761,VALID,301,VALID,0,
2008-10-18, 01:54:04,VALID,1007.43,VALID,0,VALID,94.0484,VALID,0,VALID,24.3761,VALID,302,VALID,0.0210938,
2008-10-18, 01:55:04,VALID,1007.44,VALID,0,VALID,94.0027,VALID,0,VALID,24.3761,VALID,21,VALID,0.379687,
2008-10-18, 01:56:04,VALID,1007.42,VALID,0,VALID,93.9798,VALID,0,VALID,24.3566,VALID,70,VALID,0.230078,
2008-10-18, 01:57:04,VALID,1007.44,VALID,0,VALID,93.9798,VALID,0,VALID,24.3547,VALID,69,VALID,0,
2008-10-18, 01:58:04,VALID,1007.44,VALID,0,VALID,93.9569,VALID,0,VALID,24.3547,VALID,69,VALID,0.116406,
2008-10-18, 01:59:04,VALID,1007.45,VALID,0,VALID,93.9569,VALID,0,VALID,24.3742,VALID,69,VALID,0.0507813,
2008-10-18, 02:00:04,VALID,1007.46,VALID,0,VALID,93.9112,VALID,0,VALID,24.3742,VALID,64,VALID,0.210547,
2008-10-18, 02:01:04,VALID,1007.46,VALID,0,VALID,93.9035,VALID,0,VALID,24.3761,VALID,64,VALID,0.157813,
2008-10-18, 02:02:04,VALID,1007.45,VALID,0,VALID,93.8883,VALID,0,VALID,24.3761,VALID,64,VALID,0,
2008-10-18, 02:03:04,VALID,1007.44,VALID,0,VALID,93.8807,VALID,0,VALID,24.3547,VALID,64,VALID,0,
2008-10-18, 02:04:04,VALID,1007.4,VALID,0,VALID,93.8883,VALID,0,VALID,24.3761,VALID,64,VALID,0,
2008-10-18, 02:05:04,VALID,1007.38,VALID,0,VALID,93.8807,VALID,0,VALID,24.3566,VALID,64,VALID,0.279687,
2008-10-18, 02:06:04,VALID,1007.38,VALID,0,VALID,93.873,VALID,0,VALID,24.3566,VALID,344,VALID,0.360156,
2008-10-18, 02:07:04,VALID,1007.33,VALID,0,VALID,93.8883,VALID,0,VALID,24.3761,VALID,344,VALID,0.264453,
2008-10-18, 02:08:04,VALID,1007.29,VALID,0,VALID,93.8807,VALID,0,VALID,24.3566,VALID,351,VALID,0.351563,
2008-10-18, 02:09:04,VALID,1007.25,VALID,0,VALID,93.9264,VALID,0,VALID,24.3566,VALID,351,VALID,0.0015625,
2008-10-18, 02:10:04,VALID,1007.23,VALID,0,VALID,93.9417,VALID,0,VALID,24.3566,VALID,351,VALID,0,
2008-10-18, 02:11:04,VALID,1007.22,VALID,0,VALID,93.9569,VALID,0,VALID,24.3371,VALID,351,VALID,0,
2008-10-18, 02:12:04,VALID,1007.19,VALID,0,VALID,93.995,VALID,0.105969,VALID,24.3566,VALID,351,VALID,0.169922,
2008-10-18, 02:13:04,VALID,1007.14,VALID,0,VALID,94.0408,VALID,0,VALID,24.3176,VALID,351,VALID,0,
2008-10-18, 02:14:04,VALID,1007.14,VALID,0,VALID,94.0484,VALID,0,VALID,24.3176,VALID,351,VALID,0,
2008-10-18, 02:15:04,VALID,1007.13,VALID,0,VALID,94.0637,VALID,0,VALID,24.3371,VALID,351,VALID,0,
2008-10-18, 02:16:04,VALID,1007.09,VALID,0,VALID,94.0865,VALID,0,VALID,24.3352,VALID,351,VALID,0,
2008-10-18, 02:17:04,VALID,1007.08,VALID,0,VALID,94.1094,VALID,0,VALID,24.3176,VALID,351,VALID,0,
2008-10-18, 02:18:04,VALID,1007.05,VALID,0,VALID,94.1399,VALID,0,VALID,24.3371,VALID,351,VALID,0,
2008-10-18, 02:19:04,VALID,1007.05,VALID,0,VALID,94.1857,VALID,0,VALID,24.3158,VALID,351,VALID,0,
2008-10-18, 02:20:04,VALID,1007.06,VALID,0,VALID,94.1704,VALID,0.105969,VALID,24.2963,VALID,351,VALID,0.08125,
2008-10-18, 02:21:04,VALID,1007.03,VALID,0,VALID,94.1552,VALID,0.105969,VALID,24.3158,VALID,351,VALID,0.194531,
2008-10-18, 02:22:04,VALID,1007.01,VALID,0,VALID,94.0942,VALID,0,VALID,24.3176,VALID,9,VALID,0.38125,
2008-10-18, 02:23:04,VALID,1007.02,VALID,0,VALID,94.0332,VALID,0,VALID,24.3371,VALID,96,VALID,0.515625,
2008-10-18, 02:24:04,VALID,1006.97,VALID,0,VALID,93.9798,VALID,0,VALID,24.3566,VALID,126,VALID,0.453516,
2008-10-18, 02:25:04,VALID,1006.98,VALID,0,VALID,93.9035,VALID,0,VALID,24.3371,VALID,126,VALID,0.258594,
2008-10-18, 02:26:04,VALID,1006.94,VALID,0,VALID,93.8578,VALID,0,VALID,24.3176,VALID,126,VALID,0.128125,
2008-10-18, 02:27:04,VALID,1006.92,VALID,0,VALID,93.8349,VALID,0,VALID,24.3158,VALID,126,VALID,0,
2008-10-18, 02:28:04,VALID,1006.92,VALID,0,VALID,93.8044,VALID,0,VALID,24.3176,VALID,126,VALID,0.00390625,
2008-10-18, 02:29:04,VALID,1006.91,VALID,0,VALID,93.812,VALID,0,VALID,24.3371,VALID,126,VALID,0.174609,
2008-10-18, 02:30:04,VALID,1006.9,VALID,0,VALID,93.812,VALID,0,VALID,24.3566,VALID,125,VALID,0.473047,
2008-10-18, 02:31:04,VALID,1006.92,VALID,0,VALID,93.8807,VALID,0,VALID,24.3956,VALID,125,VALID,0.662891,
2008-10-18, 02:32:05,VALID,1006.93,VALID,0,VALID,93.8654,VALID,0,VALID,24.3761,VALID,128,VALID,0.891406,
2008-10-18, 02:33:05,VALID,1006.94,VALID,0,VALID,93.8502,VALID,0,VALID,24.3371,VALID,139,VALID,1.02969,
2008-10-18, 02:34:05,VALID,1006.89,VALID,0,VALID,93.812,VALID,0,VALID,24.3566,VALID,133,VALID,1.25195,
2008-10-18, 02:35:05,VALID,1006.88,VALID,0,VALID,93.812,VALID,0,VALID,24.3371,VALID,113,VALID,0.570703,
2008-10-18, 02:36:05,VALID,1006.87,VALID,0,VALID,93.8196,VALID,0,VALID,24.3371,VALID,100,VALID,0.549219,
2008-10-18, 02:37:05,VALID,1006.84,VALID,0,VALID,93.7815,VALID,0,VALID,24.3566,VALID,104,VALID,0.646484,
2008-10-18, 02:38:05,VALID,1006.84,VALID,0,VALID,93.7815,VALID,0,VALID,24.3566,VALID,90,VALID,0.447266,
2008-10-18, 02:39:05,VALID,1006.84,VALID,0,VALID,93.7968,VALID,0,VALID,24.3566,VALID,87,VALID,0.454297,
2008-10-18, 02:40:05,VALID,1006.87,VALID,0,VALID,93.7739,VALID,0,VALID,24.3371,VALID,79,VALID,0.591016,
2008-10-18, 02:41:05,VALID,1006.88,VALID,0,VALID,93.7739,VALID,0,VALID,24.3371,VALID,85,VALID,0.595312,
2008-10-18, 02:42:05,VALID,1006.88,VALID,0,VALID,93.7891,VALID,0,VALID,24.3176,VALID,81,VALID,0.347656,
2008-10-18, 02:43:05,VALID,1006.87,VALID,0,VALID,93.812,VALID,0,VALID,24.2981,VALID,73,VALID,0.496484,
2008-10-18, 02:44:05,VALID,1006.85,VALID,0,VALID,93.8196,VALID,0,VALID,24.2981,VALID,72,VALID,0.667578,
2008-10-18, 02:45:05,VALID,1006.87,VALID,0,VALID,93.8044,VALID,0,VALID,24.2786,VALID,72,VALID,0.201953,
2008-10-18, 02:46:05,VALID,1006.84,VALID,0,VALID,93.8273,VALID,0,VALID,24.2591,VALID,52,VALID,0.408594,
2008-10-18, 02:47:05,VALID,1006.86,VALID,0,VALID,93.8196,VALID,0,VALID,24.2378,VALID,52,VALID,0.189063,
2008-10-18, 02:48:05,VALID,1006.85,VALID,0,VALID,93.8349,VALID,0,VALID,24.2396,VALID,50,VALID,0.295703,
2008-10-18, 02:49:05,VALID,1006.87,VALID,0,VALID,93.8273,VALID,0,VALID,24.2202,VALID,36,VALID,0.260156,
2008-10-18, 02:50:05,VALID,1006.85,VALID,0,VALID,93.8502,VALID,0,VALID,24.2202,VALID,36,VALID,0.2125,
2008-10-18, 02:51:05,VALID,1006.87,VALID,0,VALID,93.8883,VALID,0,VALID,24.2007,VALID,36,VALID,0,
2008-10-18, 02:52:05,VALID,1006.86,VALID,0,VALID,93.9264,VALID,0,VALID,24.2007,VALID,36,VALID,0.330078,
2008-10-18, 02:53:05,VALID,1006.87,VALID,0,VALID,93.9722,VALID,0,VALID,24.1812,VALID,36,VALID,0.155859,
2008-10-18, 02:54:05,VALID,1006.88,VALID,0,VALID,94.0255,VALID,0,VALID,24.1812,VALID,36,VALID,0.292578,
2008-10-18, 02:55:05,VALID,1006.89,VALID,0,VALID,94.0408,VALID,0,VALID,24.1422,VALID,36,VALID,0.136719,
2008-10-18, 02:56:05,VALID,1006.91,VALID,0,VALID,94.0942,VALID,0,VALID,24.1404,VALID,16,VALID,0.378125,
2008-10-18, 02:57:05,VALID,1006.94,VALID,0,VALID,94.1323,VALID,0,VALID,24.1617,VALID,340,VALID,0.407813,
2008-10-18, 02:58:05,VALID,1006.94,VALID,0,VALID,94.1781,VALID,0,VALID,24.1422,VALID,335,VALID,0.312109,
2008-10-18, 02:59:05,VALID,1006.93,VALID,0,VALID,94.1857,VALID,0,VALID,24.1422,VALID,320,VALID,0.362891,
2008-10-18, 03:00:05,VALID,1006.94,VALID,0,VALID,94.2086,VALID,0,VALID,24.1227,VALID,305,VALID,0.416016,
2008-10-18, 03:01:05,VALID,1006.94,VALID,0,VALID,94.2467,VALID,0,VALID,24.1227,VALID,305,VALID,0.245703,
2008-10-18, 03:02:05,VALID,1006.92,VALID,0,VALID,94.2772,VALID,0,VALID,24.1227,VALID,305,VALID,0.0984375,
2008-10-18, 03:03:05,VALID,1006.94,VALID,0,VALID,94.2772,VALID,0.105969,VALID,24.1227,VALID,305,VALID,0.00429688,
2008-10-18, 03:04:05,VALID,1006.93,VALID,0,VALID,94.2848,VALID,0,VALID,24.1032,VALID,305,VALID,0,
2008-10-18, 03:05:05,VALID,1006.96,VALID,0,VALID,94.2924,VALID,0,VALID,24.0837,VALID,305,VALID,0,
2008-10-18, 03:06:05,VALID,1006.99,VALID,0,VALID,94.2848,VALID,0,VALID,24.1032,VALID,305,VALID,0,
2008-10-18, 03:07:05,VALID,1007,VALID,0,VALID,94.3611,VALID,0.105969,VALID,24.0819,VALID,305,VALID,0,
2008-10-18, 03:08:05,VALID,1007.02,VALID,0,VALID,94.3839,VALID,0,VALID,24.0624,VALID,306,VALID,0,
2008-10-18, 03:09:05,VALID,1007.04,VALID,0,VALID,94.4373,VALID,0.105969,VALID,24.0819,VALID,2,VALID,0.328516,
2008-10-18, 03:10:05,VALID,1007.02,VALID,0,VALID,94.4678,VALID,0.105969,VALID,24.0819,VALID,40,VALID,0.365234,
2008-10-18, 03:11:05,VALID,1007.03,VALID,0,VALID,94.4983,VALID,0.105969,VALID,24.0819,VALID,40,VALID,0.148438,
2008-10-18, 03:12:05,VALID,1007.03,VALID,0,VALID,94.506,VALID,0.105969,VALID,24.0819,VALID,40,VALID,0.223438,
2008-10-18, 03:13:05,VALID,1007.03,VALID,0,VALID,94.4983,VALID,0.105969,VALID,24.0624,VALID,40,VALID,0.198828,
2008-10-18, 03:14:05,VALID,1007.05,VALID,0,VALID,94.5288,VALID,0.105969,VALID,24.0819,VALID,26,VALID,0.226953,
2008-10-18, 03:15:05,VALID,1007.04,VALID,0,VALID,94.5517,VALID,0.105969,VALID,24.0624,VALID,353,VALID,0.217969,
2008-10-18, 03:16:05,VALID,1007.08,VALID,0,VALID,94.5517,VALID,0.105969,VALID,24.0429,VALID,353,VALID,0,
2008-10-18, 03:17:05,VALID,1007.09,VALID,0,VALID,94.5746,VALID,0.105969,VALID,24.0216,VALID,353,VALID,0,
2008-10-18, 03:18:05,VALID,1007.09,VALID,0,VALID,94.5822,VALID,0.105969,VALID,24.0643,VALID,46,VALID,0.252344,
2008-10-18, 03:19:05,VALID,1007.07,VALID,0,VALID,94.5898,VALID,0.105969,VALID,24.0624,VALID,107,VALID,0.683203,
2008-10-18, 03:20:05,VALID,1007.09,VALID,0,VALID,94.6127,VALID,0.105969,VALID,24.0624,VALID,107,VALID,0.465625,
2008-10-18, 03:21:05,VALID,1007.05,VALID,0,VALID,94.628,VALID,0.105969,VALID,24.0429,VALID,101,VALID,0.490625,
2008-10-18, 03:22:04,VALID,1007.05,VALID,0,VALID,94.6432,VALID,0.105969,VALID,24.0624,VALID,105,VALID,0.659766,
2008-10-18, 03:23:05,VALID,1007.08,VALID,0,VALID,94.6508,VALID,0.105969,VALID,24.1014,VALID,138,VALID,1.11211,
2008-10-18, 03:24:05,VALID,1007.09,VALID,0,VALID,94.6508,VALID,0,VALID,24.1404,VALID,149,VALID,1.15664,
2008-10-18, 03:25:05,VALID,1007.08,VALID,0,VALID,94.6051,VALID,0,VALID,24.1793,VALID,166,VALID,0.944531,
2008-10-18, 03:26:05,VALID,1007.07,VALID,0,VALID,94.5441,VALID,0.105969,VALID,24.1793,VALID,156,VALID,0.515625,
2008-10-18, 03:27:05,VALID,1007.04,VALID,0,VALID,94.4983,VALID,0.105969,VALID,24.158,VALID,153,VALID,0.405469,
2008-10-18, 03:28:05,VALID,1007.06,VALID,0,VALID,94.4297,VALID,0.105969,VALID,24.1793,VALID,153,VALID,0.233203,
2008-10-18, 03:29:05,VALID,1007.09,VALID,0,VALID,94.3916,VALID,0.105969,VALID,24.1793,VALID,153,VALID,0,
2008-10-18, 03:30:05,VALID,1007.1,VALID,0,VALID,94.3611,VALID,0.105969,VALID,24.1775,VALID,153,VALID,0.472266,
2008-10-18, 03:31:05,VALID,1007.11,VALID,0,VALID,94.3458,VALID,0,VALID,24.1988,VALID,153,VALID,0.416797,
2008-10-18, 03:32:05,VALID,1007.15,VALID,0,VALID,94.3001,VALID,0,VALID,24.2183,VALID,153,VALID,0.301172,
2008-10-18, 03:33:05,VALID,1007.13,VALID,0,VALID,94.3229,VALID,0.105969,VALID,24.1793,VALID,153,VALID,0,
2008-10-18, 03:34:05,VALID,1007.17,VALID,0,VALID,94.2848,VALID,0,VALID,24.1793,VALID,151,VALID,0.414453,
2008-10-18, 03:35:05,VALID,1007.15,VALID,0,VALID,94.2848,VALID,0.105969,VALID,24.2202,VALID,138,VALID,0.631641,
2008-10-18, 03:36:05,VALID,1007.16,VALID,0,VALID,94.2696,VALID,0.105969,VALID,24.1988,VALID,133,VALID,0.644141,
2008-10-18, 03:37:05,VALID,1007.18,VALID,0,VALID,94.2696,VALID,0,VALID,24.2396,VALID,140,VALID,0.735937,
2008-10-18, 03:38:05,VALID,1007.18,VALID,0,VALID,94.2238,VALID,0,VALID,24.2007,VALID,152,VALID,0.872656,
2008-10-18, 03:39:05,VALID,1007.16,VALID,0,VALID,94.2162,VALID,0,VALID,24.1812,VALID,148,VALID,0.696875,
2008-10-18, 03:40:05,VALID,1007.17,VALID,0,VALID,94.2238,VALID,0,VALID,24.2007,VALID,148,VALID,0.535547,
2008-10-18, 03:41:05,VALID,1007.17,VALID,0,VALID,94.2009,VALID,0,VALID,24.2007,VALID,147,VALID,0.559766,
2008-10-18, 03:42:05,VALID,1007.2,VALID,0,VALID,94.2238,VALID,0,VALID,24.1617,VALID,138,VALID,0.758203,
2008-10-18, 03:43:05,VALID,1007.21,VALID,0,VALID,94.2314,VALID,0,VALID,24.1617,VALID,145,VALID,0.821484,
2008-10-18, 03:44:05,VALID,1007.2,VALID,0,VALID,94.2696,VALID,0,VALID,24.1404,VALID,145,VALID,0.373437,
2008-10-18, 03:45:05,VALID,1007.21,VALID,0,VALID,94.3001,VALID,0,VALID,24.1422,VALID,139,VALID,0.413672,